QCL1990 SUMU-SGAS

Flight info

Callsign QCL1990
Flight time 1h 24m
Altitude 33000
Route VUKAS UM402 KONTO KONTO
Aircraft B722/M-SDFGHRWY/C

Departure

Time 2026-05-04 16:00
Airport Carrasco General Cesáreo L. Berisso International Airport (SUMU)

Arrival

Time 2026-05-04 17:24
Airport Silvio Pettirossi International Airport (SGAS)
Time Latitude Longitude Altitude Speed Heading
2026-05-04 15:28 -34.83874 -56.02382 85 ft 0 kts
2026-05-04 15:48 -34.83881 -56.02382 86 ft 4 kts
2026-05-04 15:48 -34.83908 -56.02382 89 ft 4 kts
2026-05-04 15:48 -34.83942 -56.02372 88 ft 2 kts 301°
2026-05-04 15:49 -34.83946 -56.02359 90 ft 2 kts 278°
2026-05-04 15:49 -34.83946 -56.02346 89 ft 0 kts 271°
2026-05-04 15:56 -34.83946 -56.02348 85 ft 1 kts 271°
2026-05-04 15:56 -34.83946 -56.02367 85 ft 5 kts 270°
2026-05-04 15:56 -34.83946 -56.02434 85 ft 10 kts 270°
2026-05-04 15:57 -34.83946 -56.02527 85 ft 12 kts 270°
2026-05-04 15:57 -34.83948 -56.02636 85 ft 14 kts 259°
2026-05-04 15:57 -34.83987 -56.02752 85 ft 16 kts 237°
2026-05-04 15:57 -34.84011 -56.02874 85 ft 15 kts 269°
2026-05-04 15:58 -34.84012 -56.03009 85 ft 13 kts 269°
2026-05-04 15:58 -34.84047 -56.03079 87 ft 10 kts 182°
2026-05-04 15:58 -34.84118 -56.03054 87 ft 12 kts 154°
2026-05-04 15:58 -34.84169 -56.03027 87 ft 4 kts 198°
2026-05-04 15:59 -34.84182 -56.03058 88 ft 5 kts 273°
2026-05-04 15:59 -34.84179 -56.03068 86 ft 1 kts 320°
2026-05-04 15:59 -34.84164 -56.03074 88 ft 5 kts 351°
2026-05-04 15:59 -34.84096 -56.03076 88 ft 17 kts 359°
2026-05-04 16:00 -34.83801 -56.03080 86 ft 71 kts 359°
2026-05-04 16:00 -34.83116 -56.03090 89 ft 124 kts 359°
2026-05-04 16:00 -34.82148 -56.03110 314 ft 143 kts 358°
2026-05-04 16:00 -34.81136 -56.03149 835 ft 150 kts 356°
2026-05-04 16:01 -34.80039 -56.03185 1309 ft 165 kts 354°
2026-05-04 16:01 -34.78871 -56.03250 1866 ft 174 kts 349°
2026-05-04 16:01 -34.77589 -56.03390 2394 ft 188 kts 348°
2026-05-04 16:01 -34.76197 -56.03618 2845 ft 217 kts 346°
2026-05-04 16:02 -34.74653 -56.04003 3575 ft 234 kts 344°
2026-05-04 16:02 -34.73011 -56.04445 4624 ft 242 kts 344°
2026-05-04 16:02 -34.69669 -56.05113 6740 ft 243 kts 349°
2026-05-04 16:03 -34.67988 -56.05359 7713 ft 244 kts 348°
2026-05-04 16:03 -34.66296 -56.05641 8565 ft 249 kts 347°
2026-05-04 16:03 -34.64571 -56.05936 9410 ft 254 kts 348°
2026-05-04 16:03 -34.62783 -56.06233 10167 ft 262 kts 348°
2026-05-04 16:04 -34.60956 -56.06533 10843 ft 269 kts 347°
2026-05-04 16:04 -34.57126 -56.07168 12181 ft 285 kts 346°
2026-05-04 16:04 -34.55136 -56.07501 12696 ft 298 kts 346°
2026-05-04 16:05 -34.53016 -56.07851 13220 ft 312 kts 346°
2026-05-04 16:05 -34.50805 -56.08215 13755 ft 325 kts 346°
2026-05-04 16:05 -34.46191 -56.08976 14708 ft 347 kts 346°
2026-05-04 16:06 -34.43768 -56.09371 15192 ft 348 kts 346°
2026-05-04 16:06 -34.37365 -56.10425 16693 ft 351 kts 345°
2026-05-04 16:07 -34.34089 -56.10967 17504 ft 356 kts 345°
2026-05-04 16:07 -34.26666 -56.12236 19148 ft 366 kts 345°
2026-05-04 16:08 -34.24117 -56.12670 19639 ft 370 kts 345°
2026-05-04 16:08 -34.16345 -56.13996 21037 ft 382 kts 345°
2026-05-04 16:09 -34.11036 -56.14897 21967 ft 390 kts 345°
2026-05-04 16:09 -34.05601 -56.15825 22855 ft 398 kts 345°
2026-05-04 16:10 -34.00040 -56.16767 23704 ft 406 kts 345°
2026-05-04 16:11 -33.91584 -56.18202 24854 ft 414 kts 345°
2026-05-04 16:11 -33.88719 -56.18688 25213 ft 416 kts 345°
2026-05-04 16:12 -33.80027 -56.20159 26306 ft 424 kts 345°
2026-05-04 16:12 -33.71206 -56.21644 27353 ft 430 kts 345°
2026-05-04 16:13 -33.65240 -56.22648 28009 ft 435 kts 345°
2026-05-04 16:13 -33.59195 -56.23663 28651 ft 440 kts 345°
2026-05-04 16:14 -33.53098 -56.24687 29254 ft 444 kts 345°
2026-05-04 16:14 -33.46964 -56.25713 29817 ft 449 kts 345°
2026-05-04 16:15 -33.37614 -56.27277 30506 ft 456 kts 345°
2026-05-04 16:16 -33.31303 -56.28330 30913 ft 461 kts 345°
2026-05-04 16:16 -33.21702 -56.29930 31514 ft 468 kts 345°
2026-05-04 16:17 -33.15260 -56.31001 31905 ft 472 kts 345°
2026-05-04 16:18 -33.06481 -56.32458 32406 ft 478 kts 344°
2026-05-04 16:18 -33.03202 -56.33001 32588 ft 480 kts 344°
2026-05-04 16:19 -32.93212 -56.34657 33008 ft 488 kts 344°
2026-05-04 16:19 -32.86419 -56.35780 33016 ft 495 kts 345°
2026-05-04 16:20 -32.69359 -56.38590 33009 ft 494 kts 344°
2026-05-04 16:22 -32.52313 -56.41391 33014 ft 494 kts 344°
2026-05-04 16:23 -32.31895 -56.44731 33002 ft 492 kts 345°
2026-05-04 16:25 -32.11569 -56.48042 33003 ft 492 kts 345°
2026-05-04 16:26 -31.87860 -56.51879 33003 ft 490 kts 345°
2026-05-04 16:28 -31.70956 -56.54605 33004 ft 490 kts 345°
2026-05-04 16:29 -31.47327 -56.58397 33003 ft 488 kts 345°
2026-05-04 16:30 -31.37044 -56.60047 33001 ft 506 kts 345°
2026-05-04 16:31 -31.30004 -56.61163 33008 ft 511 kts 345°
2026-05-04 16:32 -31.08948 -56.64514 33006 ft 508 kts 345°
2026-05-04 16:33 -30.94940 -56.66735 33009 ft 507 kts 345°
2026-05-04 16:34 -30.84448 -56.68395 33007 ft 507 kts 345°
2026-05-04 16:35 -30.63476 -56.71699 33006 ft 505 kts 345°
2026-05-04 16:36 -30.53035 -56.73341 33006 ft 504 kts 345°
2026-05-04 16:37 -30.42634 -56.74973 33008 ft 503 kts 345°
2026-05-04 16:38 -30.28733 -56.77148 33005 ft 503 kts 346°
2026-05-04 16:39 -30.11424 -56.79848 33001 ft 502 kts 346°
2026-05-04 16:40 -29.97588 -56.82076 33010 ft 501 kts 346°
2026-05-04 16:41 -29.80337 -56.84840 33007 ft 499 kts 346°
2026-05-04 16:43 -29.63187 -56.87585 33005 ft 498 kts 346°
2026-05-04 16:43 -29.52895 -56.89226 33002 ft 497 kts 346°
2026-05-04 16:45 -29.32339 -56.92393 32991 ft 496 kts 346°
2026-05-04 16:46 -29.16345 -56.94847 32988 ft 495 kts 346°
2026-05-04 16:47 -29.02712 -56.96923 32989 ft 494 kts 346°
2026-05-04 16:48 -28.89071 -56.98992 32989 ft 493 kts 346°
2026-05-04 16:49 -28.75490 -57.01045 32984 ft 492 kts 346°
2026-05-04 16:50 -28.61891 -57.03096 32989 ft 491 kts 346°
2026-05-04 16:51 -28.51731 -57.04623 32977 ft 491 kts 346°
2026-05-04 16:52 -28.38177 -57.06657 32978 ft 491 kts 346°
2026-05-04 16:53 -28.28047 -57.08173 32972 ft 490 kts 346°
2026-05-04 16:54 -28.14494 -57.10197 32970 ft 489 kts 346°
2026-05-04 16:55 -27.94252 -57.13210 32971 ft 489 kts 346°
2026-05-04 16:56 -27.77372 -57.15714 32968 ft 489 kts 346°
2026-05-04 16:57 -27.67281 -57.17207 32970 ft 489 kts 345°
2026-05-04 16:58 -27.53752 -57.19205 32972 ft 488 kts 345°
2026-05-04 17:00 -27.33532 -57.22140 32961 ft 488 kts 345°
2026-05-04 17:01 -27.16717 -57.24556 32962 ft 487 kts 345°
2026-05-04 17:02 -27.03232 -57.26486 32967 ft 487 kts 345°
2026-05-04 17:03 -26.93157 -57.27925 32962 ft 487 kts 345°
2026-05-04 17:03 -26.89825 -57.28397 32792 ft 478 kts 345°
2026-05-04 17:03 -26.83193 -57.29347 30930 ft 474 kts 346°
2026-05-04 17:04 -26.76788 -57.30478 29234 ft 455 kts 336°
2026-05-04 17:04 -26.71255 -57.33335 27635 ft 431 kts 323°
2026-05-04 17:05 -26.66264 -57.36901 26066 ft 422 kts 322°
2026-05-04 17:05 -26.61194 -57.40184 24896 ft 417 kts 324°
2026-05-04 17:06 -26.56260 -57.43541 23869 ft 414 kts 324°
2026-05-04 17:06 -26.53790 -57.45196 23508 ft 412 kts 325°
2026-05-04 17:07 -26.48891 -57.48435 22968 ft 401 kts 324°
2026-05-04 17:07 -26.47317 -57.49512 22954 ft 392 kts 323°
2026-05-04 17:07 -26.44303 -57.51663 22552 ft 385 kts 323°
2026-05-04 17:07 -26.41889 -57.52970 22154 ft 390 kts 338°
2026-05-04 17:08 -26.39239 -57.53604 21808 ft 393 kts 350°
2026-05-04 17:08 -26.33767 -57.53657 21096 ft 392 kts 360°
2026-05-04 17:08 -26.31042 -57.53506 20735 ft 389 kts 358°
2026-05-04 17:09 -26.28372 -57.53500 20325 ft 384 kts 355°
2026-05-04 17:09 -26.25681 -57.53543 19854 ft 382 kts 356°
2026-05-04 17:09 -26.23027 -57.53514 19353 ft 379 kts 358°
2026-05-04 17:10 -26.17813 -57.53418 18380 ft 373 kts 356°
2026-05-04 17:10 -26.10134 -57.53352 16851 ft 363 kts 358°
2026-05-04 17:11 -26.07603 -57.53351 16241 ft 359 kts 355°
2026-05-04 17:11 -26.05159 -57.53544 15642 ft 355 kts 350°
2026-05-04 17:11 -26.00274 -57.54206 14471 ft 350 kts 352°
2026-05-04 17:12 -25.97875 -57.54411 13918 ft 347 kts 353°
2026-05-04 17:12 -25.93094 -57.54897 12765 ft 340 kts 352°
2026-05-04 17:13 -25.86207 -57.55616 11262 ft 322 kts 353°
2026-05-04 17:14 -25.79730 -57.56293 10029 ft 300 kts 353°
2026-05-04 17:14 -25.77667 -57.56506 9794 ft 288 kts 353°
2026-05-04 17:14 -25.73811 -57.56907 9155 ft 274 kts 353°
2026-05-04 17:15 -25.71905 -57.57105 8753 ft 271 kts 353°
2026-05-04 17:15 -25.68203 -57.57489 7972 ft 266 kts 353°
2026-05-04 17:16 -25.64554 -57.57869 7221 ft 261 kts 353°
2026-05-04 17:16 -25.59182 -57.58424 6121 ft 254 kts 353°
2026-05-04 17:17 -25.57455 -57.58603 5761 ft 252 kts 353°
2026-05-04 17:17 -25.52391 -57.58917 4671 ft 236 kts
2026-05-04 17:18 -25.50816 -57.58522 4297 ft 227 kts 12°
2026-05-04 17:18 -25.47867 -57.57721 3537 ft 209 kts
2026-05-04 17:19 -25.45128 -57.57072 3001 ft 187 kts
2026-05-04 17:19 -25.43123 -57.56574 2462 ft 177 kts 11°
2026-05-04 17:20 -25.40676 -57.55974 2012 ft 179 kts 10°
2026-05-04 17:20 -25.38258 -57.55386 1998 ft 178 kts 12°
2026-05-04 17:20 -25.37066 -57.55100 2001 ft 176 kts 12°
2026-05-04 17:21 -25.34687 -57.54516 1989 ft 168 kts 11°
2026-05-04 17:21 -25.32712 -57.54031 1685 ft 130 kts 11°
2026-05-04 17:22 -25.31562 -57.53756 1472 ft 122 kts 10°
2026-05-04 17:22 -25.31015 -57.53628 1373 ft 118 kts 11°
2026-05-04 17:23 -25.28591 -57.53032 911 ft 114 kts 13°
2026-05-04 17:23 -25.27804 -57.52839 713 ft 121 kts 13°
2026-05-04 17:23 -25.26074 -57.52419 437 ft 132 kts 13°
2026-05-04 17:24 -25.25188 -57.52204 295 ft 121 kts 12°
2026-05-04 17:24 -25.23893 -57.51891 281 ft 37 kts 13°
2026-05-04 17:25 -25.23652 -57.51830 278 ft 35 kts 12°
2026-05-04 17:25 -25.23199 -57.51716 276 ft 28 kts 13°
2026-05-04 17:26 -25.23064 -57.51636 275 ft 11 kts 86°
2026-05-04 17:26 -25.23188 -57.51500 286 ft 13 kts 191°
2026-05-04 17:27 -25.23400 -57.51551 281 ft 18 kts 192°
2026-05-04 17:27 -25.23690 -57.51623 281 ft 24 kts 193°
2026-05-04 17:28 -25.24048 -57.51710 282 ft 29 kts 192°
2026-05-04 17:29 -25.24306 -57.51710 287 ft 8 kts 103°
2026-05-04 17:29 -25.24359 -57.51450 282 ft 7 kts 103°
2026-05-04 17:30 -25.24400 -57.51392 282 ft 0 kts 146°